Location: Barcelona
(41.3830°N, 2.1830°E)
Time: 07:55:02
(UTC+02:00)

ISS - Pass Details

Date: 15 October 2017
Orbit: 400 x 408 km, 51.6° (Epoch: 24 October)

Event Time Altitude Azimuth Distance (km) Brightness Sun altitude
Rises 19:57:08 0° 303° (WNW) 2,325 1.0 -9.6°
Reaches altitude 10° 19:59:14 10° 300° (WNW) 1,463 -0.1 -10.0°
Maximum altitude 20:02:29 64° 219° (SW) 453 -3.4 -10.6°
Drops below altitude 10° 20:05:44 10° 137° (SE) 1,459 -1.4 -11.2°
Enters shadow 20:06:01 - 136° (SE) 1,575 -1.2 -11.2°
